TimeMST,TemperatureF,Dew PointF,Humidity,Sea Level PressureIn,VisibilityMPH,Wind Direction,Wind SpeedMPH,Gust SpeedMPH,PrecipitationIn,Events,Conditions,WindDirDegrees,DateUTC
12:53 AM,36.0,35.1,97,29.61,10.0,NE,4.6,-,N/A,,Mostly Cloudy,50,2013-03-09 07:53:00
1:00 AM,35.6,35.6,100,29.68,10.0,ENE,4.6,-,N/A,,Mostly Cloudy,60,2013-03-09 08:00:00
1:53 AM,35.1,33.1,92,29.62,9.0,Calm,Calm,-,N/A,,Partly Cloudy,0,2013-03-09 08:53:00
2:53 AM,35.1,33.1,92,29.60,8.0,Calm,Calm,-,N/A,,Scattered Clouds,0,2013-03-09 09:53:00
3:53 AM,34.0,33.1,96,29.60,8.0,Calm,Calm,-,N/A,,Mostly Cloudy,0,2013-03-09 10:53:00
4:53 AM,34.0,33.1,96,29.61,5.0,Calm,Calm,-,N/A,,Mostly Cloudy,0,2013-03-09 11:53:00
5:42 AM,33.8,32.0,93,29.66,1.8,NE,4.6,-,N/A,,Overcast,40,2013-03-09 12:42:00
5:46 AM,33.8,33.8,100,29.66,0.8,NNE,4.6,-,N/A,,Overcast,30,2013-03-09 12:46:00
5:53 AM,34.0,33.1,96,29.63,1.2,Calm,Calm,-,N/A,,Overcast,0,2013-03-09 12:53:00
5:56 AM,33.8,33.8,100,29.66,3.0,Calm,Calm,-,N/A,,Overcast,0,2013-03-09 12:56:00
6:08 AM,33.8,32.0,93,29.66,5.0,Calm,Calm,-,N/A,,Overcast,0,2013-03-09 13:08:00
6:26 AM,33.8,33.8,100,29.67,6.0,Calm,Calm,-,N/A,,Overcast,0,2013-03-09 13:26:00
6:53 AM,35.1,34.0,96,29.65,7.0,Calm,Calm,-,0.00,Rain,Light Rain,0,2013-03-09 13:53:00
7:24 AM,33.8,33.8,100,29.68,4.0,West,11.5,18.4,0.00,Rain,Light Rain,270,2013-03-09 14:24:00
7:53 AM,34.0,32.0,92,29.67,7.0,West,19.6,-,0.01,Snow,Light Snow,270,2013-03-09 14:53:00
8:53 AM,34.0,30.9,89,29.70,10.0,West,21.9,28.8,0.00,,Overcast,260,2013-03-09 15:53:00
9:53 AM,33.1,30.9,92,29.73,6.0,West,24.2,33.4,0.00,Snow,Light Snow,270,2013-03-09 16:53:00
10:53 AM,35.1,30.0,82,29.74,10.0,West,19.6,33.4,0.00,,Overcast,270,2013-03-09 17:53:00
11:53 AM,35.1,30.0,82,29.76,10.0,West,20.7,33.4,N/A,,Overcast,270,2013-03-09 18:53:00
12:53 PM,35.1,30.9,85,29.78,10.0,West,19.6,27.6,N/A,,Overcast,260,2013-03-09 19:53:00
1:36 PM,33.8,30.2,87,29.80,6.0,West,17.3,-,0.00,Snow,Light Snow,270,2013-03-09 20:36:00
1:49 PM,33.8,30.2,87,29.80,1.8,West,13.8,21.9,0.00,Snow,Light Snow,280,2013-03-09 20:49:00
1:53 PM,35.1,30.9,85,29.81,2.0,West,15.0,-,0.00,Snow,Light Snow,280,2013-03-09 20:53:00
2:01 PM,33.8,30.2,87,29.81,3.0,West,16.1,20.7,0.00,Snow,Light Snow,270,2013-03-09 21:01:00
2:08 PM,33.8,30.2,87,29.82,4.0,West,16.1,-,0.00,Snow,Light Snow,270,2013-03-09 21:08:00
2:15 PM,33.8,30.2,87,29.82,4.0,West,17.3,-,0.00,Snow,Light Snow,270,2013-03-09 21:15:00
2:36 PM,33.8,30.2,87,29.83,2.0,West,15.0,23.0,0.00,Snow,Light Snow,270,2013-03-09 21:36:00
2:43 PM,33.8,30.2,87,29.84,2.5,West,12.7,20.7,0.00,Snow,Light Snow,260,2013-03-09 21:43:00
2:46 PM,33.8,30.2,87,29.84,2.5,West,12.7,-,0.00,Snow,Light Snow,260,2013-03-09 21:46:00
2:53 PM,33.1,30.9,92,29.86,2.5,West,11.5,-,0.00,Snow,Light Snow,260,2013-03-09 21:53:00
3:04 PM,33.8,30.2,87,29.84,3.0,West,10.4,18.4,0.00,Snow,Light Snow,270,2013-03-09 22:04:00
3:34 PM,33.8,30.2,87,29.86,9.0,West,8.1,-,0.00,Snow,Light Snow,280,2013-03-09 22:34:00
3:53 PM,34.0,32.0,92,29.89,10.0,Calm,Calm,-,0.00,,Overcast,0,2013-03-09 22:53:00
4:02 PM,33.8,30.2,87,29.87,10.0,ESE,3.5,-,N/A,,Overcast,120,2013-03-09 23:02:00
4:29 PM,35.6,30.2,81,29.88,10.0,SE,3.5,-,N/A,,Overcast,130,2013-03-09 23:29:00
4:53 PM,36.0,32.0,86,29.90,10.0,Calm,Calm,-,N/A,,Overcast,0,2013-03-09 23:53:00
5:53 PM,37.9,25.0,60,29.91,10.0,NW,18.4,24.2,N/A,,Partly Cloudy,310,2013-03-10 00:53:00
6:53 PM,36.0,23.0,59,29.97,10.0,WNW,16.1,-,N/A,,Clear,290,2013-03-10 01:53:00
7:53 PM,35.1,19.9,54,30.01,10.0,WNW,16.1,-,N/A,,Clear,300,2013-03-10 02:53:00
8:53 PM,34.0,18.0,52,30.05,10.0,WNW,19.6,33.4,N/A,,Clear,300,2013-03-10 03:53:00
9:53 PM,33.1,16.0,50,30.10,10.0,WNW,18.4,-,N/A,,Clear,300,2013-03-10 04:53:00
10:53 PM,30.9,16.0,54,30.13,10.0,NNW,8.1,-,N/A,,Clear,340,2013-03-10 05:53:00
11:53 PM,30.0,16.0,56,30.15,10.0,WNW,8.1,-,N/A,,Clear,300,2013-03-10 06:53:00